Starlink 32268

operational
NORAD ID: 60372 Int'l Des: 2024-138 Owner: SPXS Country: US Constellation: starlink
LEOCIRCULAR

关于 Starlink 32268

正在加载描述...

实时位置

正在加载3D地球...

即将过境

高度历史

Altitude vs Time

uPlot chart will show altitude changes over time

两行轨道根数

1 60372U 24138T 25260.67213765 -.00001669 00000-0 -44208-4 0 9994
2 60372 53.1619 33.5550 0001235 121.9308 238.1813 15.30208826 64136
Epoch: Sep 17, 2025 • Age: 24 hours

当前状态

高度 484.7 km
速度 7.62 km/s
星下点 -30.79°S, 11.67°W
发射日期 Aug 4, 2024
运行时间 1.1 years
类型 internet

技术详情

分类 Payload
质量 730.00 kg
干质量 700.00 kg
总质量 730.00 kg
长度 0.30 m
直径 4.10 m
跨度 29.00 m
形状 Box + pan
制造商 SPXS
平台类型 Starlink V2M
阶段状态 In Orbit
所有者/国家 SPXS/US

大型星座

Loading constellations...